Des Moines, Washington, United States
Lat: 47.40N, Lon: 122.32W
Wx Zone: WAZ508
Local Info
Past Weather Observations for Today

NOTE: This archive is for the closest National Weather Service station to Des Moines. Information may differ from the station used for current weather conditions.

Click here for Long-term Archive

Time Weather Temperature Dewpoint Humidity Pressure Winds Precip Visibility
15:53
Partly Cloudy
66°F / 19°C 43°F / 6°C 43% 30.15 in
(1021 mb)
N 13.8 mph
(N 22 kph)
- 10SM
14:53
Partly Cloudy
68°F / 20°C 45°F / 7°C 43% 30.18 in
(1022 mb)
N 15 mph
(N 24 kph)
- 10SM
13:53
Partly Cloudy
68°F / 20°C 45°F / 7°C 43% 30.18 in
(1022 mb)
NNW 12.7 mph
(NNW 20 kph)
- 10SM
12:53
Partly Cloudy
66°F / 19°C 45°F / 7°C 46% 30.18 in
(1022 mb)
NNW 10.4 mph
(NNW 17 kph)
- 10SM
11:53
Partly Cloudy
68°F / 20°C 45°F / 7°C 43% 30.21 in
(1023 mb)
N 10.4 mph
(N 17 kph)
- 10SM
10:53
Partly Cloudy
66°F / 19°C 45°F / 7°C 46% 30.21 in
(1023 mb)
N 12.7 mph
(N 20 kph)
- 10SM
09:53
Mostly Cloudy
64°F / 18°C 43°F / 6°C 46% 30.21 in
(1023 mb)
NNE 16.1 mph
(NNE 26 kph)
- 10SM
08:53
Mostly Cloudy
61°F / 16°C 48°F / 9°C 63% 30.21 in
(1023 mb)
NNE 12.7 mph
(NNE 20 kph)
- 10SM
07:53
Mostly Cloudy
61°F / 16°C 55°F / 13°C 83% 30.18 in
(1022 mb)
N 9.2 mph
(N 15 kph)
- 10SM
06:53
Overcast
61°F / 16°C 55°F / 13°C 83% 30.18 in
(1022 mb)
N 6.9 mph
(N 11 kph)
- 10SM
06:41
Overcast
61°F / 16°C 55°F / 13°C 83% 30.18 in
(1022 mb)
N 6.9 mph
(N 11 kph)
- 10SM
05:53
Overcast
61°F / 16°C 57°F / 14°C 88% 30.18 in
(1022 mb)
NNW 4.6 mph
(NNW 7 kph)
0.02 in
(0.51 mm)
10SM
05:40
Overcast
61°F / 16°C 57°F / 14°C 88% 30.18 in
(1022 mb)
NE 3.5 mph
(NE 6 kph)
0.02 in
(0.51 mm)
10SM
05:16
Overcast
Light Rain
61°F / 16°C 57°F / 14°C 88% 30.15 in
(1021 mb)
NE 6.9 mph
(NE 11 kph)
0.02 in
(0.51 mm)
4SM
04:53
Overcast
Light Rain
61°F / 16°C 57°F / 14°C 88% 30.15 in
(1021 mb)
ENE 6.9 mph
(ENE 11 kph)
0.00 in
(0.00 mm)
6SM
04:41
Overcast
Light Rain
63°F / 17°C 55°F / 13°C 77% 30.15 in
(1021 mb)
E 6.9 mph
(E 11 kph)
0.00 in
(0.00 mm)
8SM
04:14
Overcast
63°F / 17°C 55°F / 13°C 77% 30.15 in
(1021 mb)
ENE 8.1 mph
(ENE 13 kph)
- 10SM
03:53
Overcast
63°F / 17°C 55°F / 13°C 77% 30.15 in
(1021 mb)
ENE 6.9 mph
(ENE 11 kph)
- 10SM
02:53
Overcast
64°F / 18°C 55°F / 13°C 73% 30.15 in
(1021 mb)
ENE 8.1 mph
(ENE 13 kph)
- 10SM
02:08
Mostly Cloudy
64°F / 18°C 55°F / 13°C 73% 30.12 in
(1020 mb)
NE 10.4 mph
(NE 17 kph)
- 10SM
01:53
Mostly Cloudy
64°F / 18°C 55°F / 13°C 73% 30.12 in
(1020 mb)
NE 6.9 mph
(NE 11 kph)
- 10SM
00:53
Mostly Cloudy
64°F / 18°C 55°F / 13°C 73% 30.12 in
(1020 mb)
NE 9.2 mph
(NE 15 kph)
- 10SM
Time Weather Temperature Dewpoint Humidity Pressure Winds Precip Visibility


Weather for websites

WeatherForYou.com, LLC is not responsible for any damages or problems caused by this service. Current weather conditions are obtained from the closest station including government and personal stations which may have varying degrees of accuracy. Weather forecasts are derived from the NOAA NDFD. Like all things, this site belongs to Jesus Christ... He just trusts us to maintain it. If you have any questions or comments email webmaster@weatherforyou.com

Copyright © 2016, WeatherForYou.com LLC. All rights reserved.